Location: Goettingen
(51.5300°N, 9.9433°E)
Time: 23:03:54
(UTC+02:00)

ISS - Pass Details

Date: 25 October 2020
Orbit: 418 x 420 km, 51.6° (Epoch: 20 October)

Event Time Altitude Azimuth Distance (km) Brightness Sun altitude
Exits shadow 05:52:29 - 220° (SW) 1,862 -0.8 -11.4°
Reaches altitude 10° 05:53:27 10° 215° (SW) 1,492 -1.2 -11.2°
Maximum altitude 05:56:28 32° 150° (SSE) 749 -2.1 -10.8°
Drops below altitude 10° 05:59:30 10° 86° (E) 1,499 0.6 -10.3°
Sets 06:01:44 0° 76° (ENE) 2,365 1.5 -10.0°
